Location: Nied?wied?
(53.3665°N, 14.8184°E)
Time: 23:32:10
(UTC+00:00)

Meteor 1-23 Rocket - Pass Details

Date: 03 March 2021
Orbit: 837 x 888 km, 81.3° (Epoch: 12 April)

Event Time Altitude Azimuth Distance (km) Brightness Sun altitude
Rises 19:20:08 0° 345° (NNW) 3,406 7.9 -23.8°
Reaches altitude 10° 19:22:33 10° 344° (NNW) 2,470 7.1 -24.2°
Maximum altitude 19:28:08 75° 260° (W) 880 4.3 -24.9°
Enters shadow 19:30:21 38° 184° (S) 1,276 4.9 -25.2°
